Hourly Data Report for March 07, 2000

SHERBROOKE A
QUEBEC

45°26'00.000" N
71°41'00.000" W
241.40 m
7028124
71610
YSC

Download Data

Hourly Data (March 2000)
Hourly Data Report for March 7, 2000
TIME
LST
Temp Definition
°C
Dew Point Definition
°C
Rel Hum Definition
%
Precip. Amount Definition
mm

Wind Dir Definition
10's deg

Wind Spd Definition
km/h
Visibility Definition
km
Stn Press Definition
kPa
Hmdx Definition


Wind Chill Definition


Weather Definition


00:00 -6.0 -9.4 77   22 4 15.0 99.18   -8  
01:00 -4.8 -8.6 75   21 6 15.0 99.18   -8  
02:00 -7.9 -10.8 80     0 15.0 99.12      
03:00 -8.6 -11.2 81   11 4 15.0 99.05   -11  
04:00 -7.9 -10.8 80     0 15.0 99.05      
05:00 -8.0 -10.5 82   11 4 15.0 99.02   -10  
06:00 -6.6 -9.3 81     0 15.0 98.95      
07:00 -5.4 -8.6 78     0 15.0 98.88      
08:00 -2.0 -6.8 70   26 6 24.1 98.92   -4 Mostly Cloudy
09:00 1.4 -6.0 58   18 4 24.1 98.88     Mainly Clear
10:00 4.5 -4.1 54   26 15 24.1 98.79     Clear
11:00 5.2 -4.3 50   25 22 24.1 98.75     Mostly Cloudy
12:00 5.7 -4.2 49   27 11 24.1 98.65     Mostly Cloudy
13:00 6.3 -3.5 49   25 19 24.1 98.55     Mostly Cloudy
14:00 6.5 -3.2 50   27 26 24.1 98.49     Mostly Cloudy
15:00 6.6 -2.8 51   27 15 24.1 98.49     Mostly Cloudy
16:00 5.7 -2.5 56   27 15 24.1 98.45     Mostly Cloudy
17:00 4.9 -2.8 57   29 11 24.1 98.45     Mostly Cloudy
18:00 3.5 -2.6 64   27 7 15.0 98.49      
19:00 3.4 -2.9 63   31 6 15.0 98.52      
20:00 1.1 -3.1 74   16 6 15.0 98.55      
21:00 0.3 -3.7 74     0 15.0 98.55      
22:00 -2.0 -4.6 82   12 4 15.0 98.55   -3  
23:00 -2.1 -4.7 82   9 6 15.0 98.55   -4  

Notes on Data Quality.

Legend

  • E = Estimated
  • M = Missing
  • NA = Not Available*
  • [empty] = Indicates an unobserved value
Date modified: